Zurück zum Katalog

STARLINK-34456

AktivKommunikationVLEO
NORAD 64439·PAYLOAD·🇺🇸 United States

Gestartet Jun 18, 2025 von Cape Canaveral Space Force Station

Loading…

Nächste Überflüge (nächste 24 Stunden)

TLE

AktuellSource: CelesTrak SupGP

Epoche: Sep 15, 2026, 03:57 UTC

1 64439C 25130B   26258.16506944 -.00016117  00000+0 -47608-3 0  2588
2 64439  53.1585 284.3963 0001340  90.3137 129.2300 15.34405317    12

Verfolge STARLINK-34456 in Echtzeit mit AllMySat

Download on the App Store